Theta_e
325 325 324 322 323 324 323 323 323 323 322 321 322 319 319 319 319 319 318 317 317 317 318 318 317 317 318 317 318 318 318 320 319 318 319 320 320 320 321 325 327 331 332 332 330 330 330 329 328 326 326 325 324 323 323 324 323 321 320 320 320 319 318 318 318 318 317 317 317 317 316 316 316 316 316 315 315 315 315 314 313 313 312 312 312
324 324 324 323 323 323 323 322 321 321 321 319 319 319 318 317 318 317 317 317 316 318 317 317 317 316 316 316 316 318 318 317 317 318 319 320 322 321 318 322 326 330 331 331 332 332 331 330 329 329 328 327 325 324 324 324 323 322 322 322 321 320 319 318 318 318 317 317 317 317 317 317 317 316 316 316 316 315 315 314 314 314 312 312 312
324 324 324 323 322 324 322 321 321 321 320 319 318 318 317 317 318 317 316 316 317 317 317 317 316 318 316 316 317 315 317 318 316 317 318 319 320 320 319 319 324 327 330 331 332 332 331 330 331 330 330 329 327 325 325 324 325 324 323 323 322 321 320 320 319 318 318 317 317 317 317 317 317 316 316 316 316 316 315 314 314 313 313 312 312
326 325 324 323 323 323 323 321 321 321 320 319 318 317 317 317 318 318 318 317 316 315 317 316 315 316 317 317 317 317 316 316 316 317 317 317 319 320 320 319 319 322 325 329 331 331 331 330 331 331 332 331 329 328 328 327 327 325 325 325 324 322 322 321 321 320 319 319 318 318 317 317 317 316 317 316 315 315 315 314 314 314 313 312 311
325 326 325 324 323 323 322 322 323 322 321 319 319 317 317 316 316 317 316 315 315 315 316 315 314 315 314 316 317 317 317 316 316 317 317 318 318 318 320 318 320 316 319 322 328 330 331 331 330 329 330 330 330 331 330 329 330 329 327 327 326 325 323 323 321 320 320 320 319 319 318 318 317 316 316 315 315 315 315 315 314 314 313 313 312
326 325 325 324 323 322 322 321 322 321 321 320 318 317 316 314 315 315 315 315 314 315 314 314 314 313 314 314 314 316 315 316 315 316 316 317 318 318 319 319 318 319 319 318 321 324 329 330 331 330 330 330 331 330 331 330 330 330 328 327 327 326 326 324 323 321 321 321 320 320 319 318 318 317 317 316 315 315 315 315 315 315 314 314 313
327 325 325 324 323 322 322 322 322 321 320 319 319 318 317 316 314 315 313 313 313 314 314 314 313 314 314 314 315 315 314 314 315 315 316 316 317 317 318 318 317 319 319 319 315 318 323 328 330 330 330 330 331 331 331 331 331 331 328 328 328 328 328 326 325 324 324 322 321 320 319 319 319 318 318 317 317 316 315 315 316 315 315 314 313
327 328 325 325 325 323 322 323 322 321 321 318 318 317 316 316 315 314 311 311 312 312 313 312 313 314 313 314 314 313 313 313 314 314 315 316 317 317 318 317 318 317 316 317 318 317 318 320 325 328 330 331 331 331 332 331 331 330 330 330 328 328 328 327 326 325 324 324 322 321 320 319 319 319 318 317 317 316 316 315 315 315 315 314 314
327 328 328 327 324 323 323 323 323 321 319 317 316 317 316 316 315 314 313 311 311 311 311 312 312 313 313 312 313 313 312 313 313 314 315 315 315 316 317 317 317 314 317 317 318 318 317 318 321 324 325 327 330 331 331 332 332 331 331 331 331 331 329 327 326 326 325 323 323 322 321 320 320 319 319 318 318 318 317 317 316 316 315 314 314
329 328 327 327 326 325 325 325 324 323 320 319 318 317 317 316 314 314 314 313 311 311 310 312 313 313 312 311 311 311 312 312 313 310 312 312 314 314 315 316 316 317 317 318 318 318 319 317 317 318 318 320 325 328 330 330 332 333 331 330 332 331 329 329 327 325 324 324 324 323 322 321 321 319 319 319 318 318 317 317 317 316 315 315 314
329 328 326 326 325 325 325 325 324 323 322 320 318 317 316 316 315 314 314 314 312 312 312 312 311 309 309 310 309 310 311 311 312 311 311 312 312 313 315 315 315 316 316 317 318 318 318 318 317 316 317 317 323 327 329 329 328 331 333 333 332 332 333 331 328 327 326 326 325 325 323 322 322 321 320 320 319 319 318 318 317 316 315 316 315
328 328 327 326 325 323 323 324 323 321 321 320 318 317 316 314 314 313 313 313 313 313 312 309 306 305 306 307 307 308 309 309 309 309 309 309 310 310 311 313 313 314 315 316 317 317 317 318 316 318 317 317 317 321 324 326 328 329 331 333 334 333 333 332 329 328 326 326 326 325 324 323 323 322 322 321 320 320 319 319 318 317 316 316 316
328 329 330 326 326 324 323 322 322 321 321 321 320 318 319 318 316 314 313 313 313 311 309 307 306 305 307 306 308 308 308 308 309 309 308 309 309 309 309 309 310 311 313 314 315 315 316 316 317 317 318 318 317 315 317 320 320 328 329 330 332 333 334 334 330 331 330 327 327 327 326 325 324 323 322 322 321 320 320 319 319 319 318 317 317
329 329 328 328 327 326 323 323 324 322 321 321 320 317 319 319 319 316 316 314 313 310 309 308 304 304 304 307 307 308 309 308 308 308 308 308 308 308 308 308 308 309 310 311 313 314 315 315 315 316 317 317 318 318 317 316 316 323 328 328 330 333 334 333 330 330 329 329 327 326 327 325 324 324 323 323 323 321 321 321 320 319 319 319 318
329 327 327 329 329 327 325 325 326 324 321 320 317 316 318 320 319 318 316 314 313 310 310 311 309 307 308 306 305 306 308 306 307 307 307 307 307 307 307 307 308 309 309 310 310 311 313 313 314 315 315 316 316 317 317 314 315 313 320 325 328 331 333 333 333 332 329 330 328 329 328 326 326 325 324 324 323 322 320 321 320 320 319 319 318
331 330 329 329 327 327 327 326 325 322 321 320 319 318 318 318 319 319 317 314 310 309 313 312 311 310 306 305 305 304 304 305 305 307 307 307 307 307 307 307 307 307 308 308 309 310 311 312 312 313 314 314 314 315 315 316 314 310 309 312 318 327 329 331 332 331 329 329 331 331 329 327 326 326 325 324 324 323 322 321 321 320 319 319 318
330 330 328 328 328 327 328 327 325 323 322 321 320 320 319 318 318 318 316 315 313 312 312 313 311 312 311 308 306 302 302 306 308 310 309 306 305 307 305 306 306 307 307 307 309 309 310 310 311 312 312 313 313 313 313 313 314 312 313 308 309 317 325 327 330 331 331 330 330 331 330 327 326 326 326 325 326 324 323 323 322 320 320 319 318
329 331 330 327 328 328 328 327 325 324 323 323 322 321 320 319 319 318 315 315 315 314 314 310 311 310 311 313 313 310 309 310 309 306 308 309 308 306 306 306 306 306 307 307 307 308 308 309 310 310 311 311 311 311 311 311 311 313 313 314 314 316 319 323 326 328 330 330 330 330 329 329 329 326 327 326 326 325 324 323 321 321 320 319 318
325 327 327 329 330 329 329 328 327 327 325 324 322 321 321 320 319 318 317 316 315 313 313 314 308 309 310 310 309 309 310 307 305 307 304 309 311 310 308 308 306 306 306 307 307 307 308 308 308 309 310 310 310 310 310 310 310 310 312 313 317 316 316 317 321 324 327 328 329 330 330 328 328 328 326 326 325 326 325 324 322 322 321 320 319
323 322 323 324 324 326 327 327 326 327 324 324 323 324 323 322 319 319 318 316 316 314 313 314 312 311 308 308 307 308 308 308 308 306 304 302 305 310 310 311 311 308 307 307 307 307 307 307 307 308 308 308 309 309 309 309 309 310 311 315 317 315 315 317 316 317 320 325 328 329 328 329 327 328 328 325 325 327 325 324 323 322 321 319 318
321 320 319 320 320 320 320 321 322 323 321 325 324 323 322 320 319 318 317 317 316 316 315 314 313 313 309 306 307 307 307 307 307 306 303 303 304 306 307 309 309 311 309 309 309 308 308 308 308 307 308 308 308 307 308 308 308 309 309 314 317 318 319 319 318 316 316 315 318 322 324 326 328 328 326 327 326 324 325 325 324 324 322 320 319
322 322 322 323 323 324 323 321 318 320 322 323 323 322 322 322 322 321 320 318 318 316 315 315 314 314 314 312 306 304 305 305 305 305 304 304 302 304 306 306 305 309 310 311 310 310 310 309 308 308 308 308 308 307 307 307 308 307 307 309 312 315 318 319 318 317 315 315 315 314 316 319 322 325 327 327 326 327 325 325 324 323 322 321 320
318 318 319 320 320 319 320 321 321 321 320 322 322 321 321 321 322 320 319 318 317 316 314 313 314 314 313 313 313 312 310 306 306 304 304 302 302 304 306 308 308 308 310 310 311 311 310 309 308 308 307 308 308 307 307 307 305 306 306 307 309 311 312 314 315 315 315 315 315 315 316 316 316 320 323 325 325 326 326 327 324 324 322 322 320
311 312 311 312 312 313 313 316 318 318 317 319 318 317 317 316 318 318 318 318 318 317 316 315 314 314 314 314 313 314 313 312 311 311 308 307 306 306 307 309 308 309 311 311 311 310 309 308 309 308 308 308 308 307 307 306 306 303 303 305 307 310 311 312 314 314 312 312 312 312 314 315 315 315 317 319 322 323 325 326 324 324 322 321 321
308 308 308 310 310 311 312 312 312 311 313 316 316 315 315 315 314 313 313 315 317 317 316 315 315 314 314 314 314 314 313 314 314 313 312 311 308 305 307 309 306 307 310 310 309 310 310 310 309 308 307 307 307 307 306 305 304 303 301 302 304 306 308 310 313 313 314 313 313 312 311 311 313 313 314 315 317 319 322 324 325 325 325 323 323
307 307 309 310 310 310 310 310 310 311 311 310 311 313 316 316 315 314 313 314 314 314 314 316 316 316 315 314 313 313 313 314 313 312 311 310 308 306 306 306 307 306 309 308 309 307 308 308 310 309 307 307 306 306 305 305 304 301 300 302 303 304 306 308 309 309 310 310 311 310 311 311 311 312 313 314 315 316 317 320 322 323 323 323 323
306 307 308 307 306 307 307 308 308 309 309 310 311 311 312 313 314 313 313 313 312 311 311 311 313 313 312 313 313 313 314 314 313 313 313 311 310 309 307 304 304 305 304 307 307 307 306 308 307 307 306 305 305 305 305 304 303 302 300 301 301 301 302 304 306 308 309 309 309 309 309 309 309 310 311 312 314 314 315 317 318 319 321 321 320
306 306 305 304 304 304 304 305 306 306 307 307 307 308 307 308 310 311 311 312 311 310 309 310 311 311 311 311 310 310 311 312 312 313 313 313 311 310 308 305 302 300 304 303 304 305 308 306 305 305 306 304 305 304 302 303 304 301 299 300 299 298 300 302 305 307 307 307 308 308 308 308 308 309 309 309 310 310 312 314 314 316 316 315 316
304 303 302 302 303 302 302 303 303 304 304 304 305 305 305 305 305 305 306 308 308 308 309 309 310 310 310 309 309 311 310 310 311 311 312 311 311 310 309 308 307 303 300 299 302 303 306 305 303 305 304 304 303 304 304 304 302 301 302 300 299 297 298 301 305 306 307 307 307 307 307 307 307 306 307 307 308 308 309 310 310 311 311 311 312
301 302 300 300 300 299 300 300 300 301 300 301 300 301 302 301 302 301 301 302 302 304 306 306 306 306 306 307 307 307 308 308 309 310 309 310 309 309 309 308 307 304 303 300 301 305 305 307 306 306 305 302 303 303 304 303 300 300 301 301 300 299 299 300 303 305 304 306 306 305 305 305 306 305 305 305 306 307 309 310 310 310 311 312 313
299 298 298 297 297 297 297 296 297 297 297 297 298 298 297 300 298 297 298 298 297 298 300 302 303 304 304 303 304 305 306 306 307 307 307 307 308 309 309 309 308 307 305 303 299 303 306 304 306 305 305 302 301 303 303 302 301 301 301 300 299 297 296 299 299 301 302 303 304 304 304 305 305 305 305 305 305 307 309 309 309 310 310 311 308
296 296 294 294 294 294 294 295 295 295 296 296 296 296 297 297 297 298 297 295 295 297 298 299 301 301 301 300 301 301 301 302 303 303 304 304 305 306 306 306 305 305 304 302 300 300 305 305 305 306 306 306 304 300 301 300 301 296 299 298 297 294 295 295 296 297 298 300 301 301 302 303 303 304 304 304 305 307 308 308 308 309 311 310 304
292 292 292 292 292 292 293 294 293 294 294 295 294 293 293 293 294 293 293 293 293 295 295 296 295 296 297 297 298 299 299 299 300 301 302 303 303 303 304 304 303 303 301 300 297 297 300 304 304 304 306 306 305 305 300 299 297 297 295 296 295 295 295 294 294 294 295 297 298 299 300 300 301 301 302 302 304 306 306 306 306 308 307 302 299
291 291 291 291 291 292 292 292 292 292 291 294 292 292 293 292 292 295 295 292 292 293 291 293 294 295 295 295 296 296 296 297 298 299 299 300 300 300 300 300 300 300 301 299 298 297 296 299 300 302 302 300 300 298 297 297 296 295 295 295 294 293 293 293 292 292 294 295 297 298 298 298 299 299 300 301 304 304 304 305 304 303 301 298 297
292 292 291 292 291 291 290 291 291 290 292 291 292 291 292 291 291 292 293 291 291 292 292 292 293 293 293 293 294 294 295 294 294 295 296 296 296 296 296 297 297 298 298 299 297 295 295 296 299 298 299 299 299 300 299 297 298 297 296 295 294 293 291 291 290 290 293 295 296 297 297 297 298 298 299 301 303 303 302 301 300 299 298 297 297
292 291 290 290 289 290 289 290 289 289 290 290 290 289 291 290 291 292 292 291 291 291 291 292 292 292 291 291 292 292 291 292 292 292 292 293 293 294 294 294 295 295 296 296 297 296 295 294 297 297 298 297 298 299 299 295 294 293 293 293 291 290 290 289 289 289 291 294 295 295 296 296 297 298 298 301 302 300 299 298 297 297 296 296 295
289 288 289 287 288 288 291 289 290 289 289 289 290 290 291 289 289 290 290 290 291 291 291 291 291 291 291 291 291 291 291 290 291 290 291 291 292 292 292 293 293 294 294 295 294 295 294 293 294 297 297 297 297 297 296 294 293 291 289 289 289 289 288 288 288 289 291 293 293 294 294 295 296 297 298 301 300 299 298 297 296 295 294 294 294
286 286 286 287 287 287 286 288 287 289 289 288 288 289 290 290 289 289 289 290 290 290 291 291 291 291 291 291 291 290 290 289 290 290 291 291 291 291 291 292 292 293 293 293 293 293 293 293 293 293 295 295 294 296 295 292 293 292 290 288 287 286 286 287 287 287 287 288 288 290 291 293 294 296 297 300 299 298 296 296 295 294 293 293 293
286 285 285 285 285 286 287 286 288 289 289 289 289 290 290 288 287 287 288 288 288 289 289 290 290 290 290 290 290 289 289 289 289 290 290 290 291 290 291 291 292 291 291 291 292 292 292 292 292 293 293 294 294 293 294 290 290 290 290 289 288 287 286 286 286 286 286 286 288 290 290 290 292 292 296 298 297 296 295 294 294 293 292 292 293
285 285 285 286 286 285 287 287 289 289 288 288 288 288 288 288 287 286 286 287 287 287 288 288 289 289 290 290 290 289 289 290 289 289 289 290 290 290 291 291 291 290 290 290 290 290 290 290 291 291 292 292 293 294 288 285 286 286 287 287 288 289 286 285 286 285 285 285 285 286 289 291 292 292 296 297 296 295 294 293 293 291 290 292 292
287 285 285 286 286 286 286 286 286 287 288 289 290 290 289 288 287 287 286 286 286 286 287 287 287 288 288 289 289 289 289 289 289 290 290 291 290 289 290 290 289 289 289 289 289 289 289 289 289 291 290 290 291 291 291 290 288 289 290 287 287 287 287 285 285 286 285 285 285 286 287 288 289 290 291 290 291 292 292 292 290 290 291 292 291
284 284 284 284 284 284 285 285 285 287 288 289 289 291 292 290 288 287 286 286 285 285 285 286 286 287 287 288 289 288 288 288 288 289 290 291 290 290 290 290 289 289 288 288 288 288 288 288 288 289 288 288 290 290 290 291 291 289 288 286 286 287 284 284 284 285 285 285 285 285 286 286 287 286 286 286 288 288 287 287 287 288 290 291 291
283 283 283 283 283 283 284 284 284 286 287 288 290 292 293 293 290 287 286 285 285 285 285 285 285 286 287 287 288 287 287 288 288 289 290 291 291 291 291 290 290 290 288 288 288 288 287 287 288 288 288 288 289 290 289 290 291 290 289 288 287 286 284 282 281 283 286 285 285 284 284 285 286 285 285 285 285 285 285 286 289 290 290 290 290
282 281 282 281 282 282 283 282 282 284 284 287 290 291 292 292 291 288 286 286 285 285 285 285 285 286 286 287 287 288 287 287 288 288 288 289 290 290 290 291 291 291 291 289 288 288 288 287 287 288 288 288 289 289 289 290 290 289 288 287 286 286 285 284 284 282 284 286 285 284 282 284 284 283 280 281 283 284 285 288 290 290 290 289 289
281 281 281 281 281 282 282 282 282 283 283 287 289 290 291 291 291 290 286 285 285 285 285 285 285 285 286 286 287 287 288 287 287 287 287 287 288 289 290 290 290 290 291 292 292 290 290 288 287 287 288 288 288 288 289 289 289 288 288 286 286 286 285 285 285 284 283 286 285 282 280 281 281 280 279 281 282 284 286 289 290 290 289 289 288
280 280 279 280 281 281 282 282 282 282 282 286 289 290 290 290 291 290 286 285 285 284 284 284 285 285 285 285 286 286 287 287 286 286 287 287 287 287 288 289 289 289 290 290 290 290 290 289 288 287 289 290 288 289 289 289 288 287 288 287 287 285 285 285 286 285 285 286 284 281 278 279 280 279 278 279 282 283 285 288 289 289 289 288 287
280 281 281 281 281 281 281 281 281 282 283 287 289 289 289 290 290 290 285 285 284 284 284 284 284 284 285 285 285 286 286 287 287 287 286 286 287 287 287 287 288 288 288 288 289 289 289 289 289 289 289 290 289 289 289 289 289 288 289 288 288 287 286 284 282 284 284 286 284 282 276 277 279 277 277 278 281 282 284 288 289 288 288 287 287
278 278 279 277 280 280 281 281 281 281 282 287 288 288 289 289 290 286 284 283 283 283 284 284 284 284 285 285 285 285 286 286 287 289 289 288 287 286 286 286 286 287 287 288 290 290 289 289 289 289 289 290 291 289 289 289 289 289 288 288 287 285 283 281 280 282 282 284 284 281 276 275 278 276 276 279 281 281 282 284 287 287 287 286 286
279 279 279 279 280 280 281 281 280 281 281 284 287 288 288 289 289 284 283 283 283 283 283 284 284 284 284 285 285 285 285 285 287 289 290 289 287 286 286 286 286 287 287 288 289 290 291 291 291 292 292 292 293 293 293 293 291 291 289 286 284 285 281 279 279 280 280 282 282 280 277 274 276 276 276 277 278 279 280 281 283 286 286 285 284
277 278 279 280 280 279 280 280 280 280 281 283 286 287 288 288 288 284 283 283 283 283 283 284 284 284 284 285 285 285 285 285 288 289 290 288 286 286 286 286 286 286 286 287 287 288 289 290 290 290 290 291 291 292 292 292 292 291 287 284 285 284 282 281 278 279 280 281 280 279 276 274 275 276 274 274 274 274 277 279 281 282 284 283 284
277 277 279 279 279 279 277 279 281 281 281 282 285 287 287 288 287 284 283 283 282 283 283 283 284 284 284 284 285 285 285 286 289 289 290 288 286 286 286 285 285 285 286 286 286 286 286 286 286 287 287 288 288 287 287 289 290 288 287 286 286 284 282 281 279 279 277 278 278 280 274 273 274 274 274 271 268 270 273 276 277 277 278 278 279
Wind_Speed
5 4 4 3 2 2 1 3 4 4 4 1 4 3 2 2 1 1 1 3 3 3 4 3 3 3 4 4 3 3 4 4 4 3 3 3 2 6 10 10 8 7 9 10 12 12 12 12 12 12 12 11 11 12 11 12 10 8 10 10 11 10 9 10 10 11 11 11 11 11 11 11 9 11 11 10 10 10 11 9 8 8 7 6 6
4 5 4 4 2 3 1 1 3 3 4 2 2 3 3 3 2 2 3 4 3 4 5 4 4 4 3 4 3 4 4 4 4 4 4 4 5 4 12 12 12 9 11 11 13 14 14 14 14 14 15 13 13 12 12 13 11 10 11 12 12 12 11 10 11 12 12 13 13 13 13 13 13 13 12 12 12 12 11 11 11 11 8 9 8
3 4 4 4 3 3 3 2 3 3 4 3 3 3 3 3 4 3 3 3 5 4 4 4 4 4 4 4 4 3 4 5 4 4 4 4 4 4 7 13 13 12 10 11 13 15 16 15 15 15 15 16 14 12 13 14 14 14 13 13 14 13 13 13 13 13 13 13 14 14 14 15 14 14 14 13 13 13 13 11 11 12 11 11 11
1 2 3 4 4 4 4 4 4 4 4 4 3 3 2 2 2 2 1 1 3 3 4 4 4 5 4 5 5 4 5 5 4 4 4 4 5 5 4 7 12 13 13 13 13 14 16 17 16 16 17 17 16 15 16 16 17 17 16 16 14 15 16 15 15 15 15 16 16 16 17 16 15 15 16 14 14 14 14 13 13 14 13 12 12
2 1 0 1 3 4 4 4 5 4 4 4 3 3 1 1 1 1 2 3 4 4 4 3 4 5 3 4 5 5 5 5 5 5 5 5 6 6 6 4 6 10 14 14 14 14 15 17 19 17 18 18 18 19 20 20 22 20 18 17 18 18 18 18 16 17 16 17 17 17 17 17 17 16 16 15 16 15 15 15 14 15 14 14 13
2 1 1 1 2 2 3 3 3 3 4 4 3 3 3 3 4 4 5 5 5 5 4 5 5 4 5 5 4 5 5 5 6 6 5 5 5 5 6 6 5 6 7 13 14 14 14 15 18 19 19 20 20 21 21 21 21 21 19 20 19 21 18 19 17 18 19 19 19 19 19 19 18 18 18 18 18 17 16 16 16 17 16 15 14
3 3 2 3 3 3 3 5 3 3 4 4 4 4 5 5 4 4 4 5 5 6 4 6 5 6 6 7 6 6 4 6 5 5 6 5 5 5 6 6 6 6 6 6 10 15 15 14 16 16 19 20 21 22 22 22 23 23 22 20 21 21 21 20 22 22 19 20 22 20 21 20 20 21 20 20 20 19 19 19 19 18 17 17 17
2 1 2 3 4 4 4 4 4 4 5 4 4 4 5 5 4 4 4 5 5 6 5 6 6 6 6 6 6 5 6 6 6 6 6 5 6 6 6 6 6 7 6 6 7 9 15 16 17 16 17 19 21 22 23 24 24 24 22 20 24 22 21 21 23 23 23 22 21 23 22 22 22 22 22 22 21 21 20 20 20 20 19 18 17
3 2 3 3 3 4 4 4 4 4 4 3 4 4 4 4 5 5 5 6 5 5 5 6 6 6 6 5 5 5 5 6 6 6 5 6 6 6 6 6 7 7 7 7 6 6 10 17 17 18 19 19 19 21 23 24 26 25 24 24 23 24 21 23 24 23 23 23 23 22 23 24 22 22 23 23 23 22 22 21 21 21 21 20 19
6 4 5 6 4 4 4 4 4 5 5 5 6 6 6 5 6 5 6 5 5 5 5 5 5 6 6 5 4 4 5 5 6 5 6 6 6 7 7 7 7 7 7 7 7 7 7 9 15 18 18 19 18 21 23 24 25 27 27 26 25 24 27 25 24 23 24 24 23 23 24 23 23 25 25 25 25 24 22 24 23 22 22 22 22
6 7 6 6 5 5 4 4 3 5 5 5 4 5 5 6 6 5 4 6 6 5 6 6 4 3 4 4 4 5 6 5 6 7 7 7 7 8 7 8 8 7 8 8 8 7 8 7 7 7 10 18 17 20 22 24 26 27 28 28 28 28 24 21 21 23 25 27 26 25 23 24 25 25 26 26 26 25 24 24 26 24 24 24 23
7 7 7 7 6 6 7 7 6 4 5 5 5 6 6 5 5 5 5 4 5 6 6 4 3 3 5 6 6 7 7 7 7 7 6 7 8 7 8 8 7 7 8 8 7 7 8 8 8 8 8 12 18 20 22 22 22 25 27 28 29 30 28 26 26 28 29 30 23 24 23 24 27 27 26 26 27 27 26 25 26 24 25 24 24
8 8 7 6 6 6 6 5 5 5 5 7 7 6 6 6 6 5 6 6 5 5 3 1 2 6 6 7 9 8 11 10 10 9 10 10 9 9 9 8 8 8 9 7 7 7 7 8 8 8 8 8 11 17 21 21 22 24 26 27 29 30 31 29 32 28 23 24 24 26 26 28 28 28 27 27 29 29 27 28 26 26 26 26 25
7 6 6 6 6 5 5 5 6 6 7 8 6 6 5 4 3 4 5 7 5 3 3 3 3 6 6 6 5 5 9 10 10 11 11 9 10 10 9 9 10 9 8 8 9 9 9 8 8 8 8 9 9 8 9 13 16 22 24 26 28 30 31 32 32 29 27 26 27 30 26 29 28 30 31 30 30 30 28 28 28 27 27 26 26
7 7 7 6 6 6 6 7 6 6 7 7 5 4 4 5 5 5 5 3 4 2 4 7 6 2 4 4 7 7 2 3 6 10 10 10 9 9 10 9 11 9 8 7 8 9 8 8 9 9 9 10 9 9 9 11 11 15 19 23 26 29 31 32 33 31 29 29 26 28 26 26 26 29 31 32 32 31 29 29 30 30 29 28 27
7 7 7 6 6 7 6 6 7 5 6 6 5 5 4 5 6 7 6 6 3 5 5 5 6 2 5 5 3 2 11 3 5 5 9 12 10 11 8 9 10 9 7 8 9 9 8 8 9 10 10 11 10 9 10 10 14 15 17 20 23 25 29 31 32 33 32 31 33 29 26 24 29 29 30 30 31 31 30 30 30 31 29 29 30
4 6 7 7 7 6 7 6 4 3 3 5 6 6 6 5 6 6 6 7 7 3 3 6 7 7 7 5 4 2 5 6 6 8 6 5 7 9 8 9 9 9 8 9 9 9 8 8 9 9 11 11 10 10 10 10 10 11 14 18 19 20 25 28 31 32 33 32 33 34 30 26 31 28 29 31 31 31 32 32 33 31 31 31 30
4 4 5 5 6 7 6 5 5 5 5 6 7 6 6 6 7 7 6 5 7 7 7 3 8 9 9 8 7 8 8 7 8 9 1 4 5 7 8 9 9 9 8 9 9 9 8 9 9 10 11 11 10 11 10 10 10 10 10 13 19 18 19 23 27 31 32 32 33 33 33 30 27 27 30 31 31 32 33 33 33 31 32 31 30
1 1 1 4 5 5 5 6 7 6 6 6 6 6 6 8 7 7 8 7 5 8 8 6 2 5 6 8 9 8 9 6 7 8 14 2 5 5 4 6 6 8 9 8 10 8 7 8 10 11 11 10 10 10 10 10 13 15 17 17 18 20 20 21 24 27 29 32 32 33 33 33 34 28 29 31 30 31 33 33 32 34 33 31 30
0 1 1 1 0 2 3 3 4 5 5 5 6 6 7 5 4 4 4 5 6 7 8 6 7 6 6 9 9 9 7 8 9 10 11 13 14 7 7 8 9 9 9 8 9 9 9 8 10 11 11 11 10 10 10 10 10 11 12 16 20 20 20 22 23 24 26 30 33 34 36 35 33 33 28 28 31 29 31 32 32 33 32 32 31
3 2 2 1 1 2 2 3 3 3 3 4 4 5 5 5 4 5 5 6 6 8 7 9 8 9 5 5 6 7 6 7 8 6 7 11 16 13 13 5 7 8 7 8 8 9 9 10 11 12 11 11 10 10 10 10 10 10 12 15 18 21 22 23 24 25 24 24 25 29 30 33 35 34 33 31 28 28 31 33 32 32 34 34 33
4 3 3 3 4 4 5 4 4 3 3 3 3 3 3 4 5 6 7 8 6 6 7 7 6 6 4 4 3 3 4 5 6 7 7 9 13 16 12 14 16 10 7 11 9 11 11 11 12 12 11 11 9 9 9 10 10 9 12 17 18 21 22 23 23 23 23 24 24 24 25 28 30 32 34 32 32 32 29 27 32 32 34 36 35
2 2 1 3 3 4 4 4 4 4 5 4 4 3 4 4 4 4 5 6 5 5 6 6 7 6 7 7 8 8 8 8 9 6 7 7 8 13 13 13 13 17 12 7 11 11 10 10 11 11 11 11 10 9 10 10 12 13 16 16 17 19 21 21 21 23 22 22 22 23 23 22 24 29 32 32 33 32 32 32 28 29 34 38 36
2 1 2 3 3 3 3 3 3 2 4 4 4 4 5 4 3 3 4 4 5 6 6 7 8 8 9 7 7 8 7 7 7 6 6 8 9 13 14 12 14 14 11 10 9 10 8 10 11 12 12 11 11 10 10 10 10 16 14 16 17 20 21 21 22 21 23 23 22 23 23 24 28 30 29 30 31 31 31 31 32 29 28 30 32
4 3 3 4 4 4 4 4 3 3 3 3 3 4 5 5 5 5 4 4 4 5 5 6 7 8 8 8 8 8 9 9 9 9 8 8 7 10 13 10 14 16 14 8 11 7 7 9 8 10 10 10 10 10 10 9 8 11 14 12 17 18 20 20 21 22 21 20 21 22 23 23 24 27 29 28 29 30 30 30 31 31 29 27 29
3 4 4 5 5 5 5 5 5 5 5 4 3 4 4 4 5 5 6 6 5 5 5 6 6 8 7 7 6 7 7 6 7 7 9 9 9 10 11 11 12 14 14 13 12 11 9 6 9 9 9 10 10 10 9 9 9 12 15 12 13 16 17 16 17 19 20 21 22 23 23 21 21 25 28 27 27 28 28 30 30 31 32 29 26
5 4 5 6 4 5 5 5 5 5 5 6 6 4 3 4 4 4 5 4 5 5 5 5 6 5 5 5 6 6 6 7 6 7 7 7 8 9 9 14 14 12 12 12 16 16 14 9 6 8 8 8 9 8 9 7 10 14 13 10 9 13 14 16 14 17 19 20 21 21 21 21 22 23 26 28 27 28 28 28 28 29 29 31 28
5 5 4 4 4 4 4 4 5 5 5 5 5 5 5 5 4 4 5 4 5 6 6 6 7 7 6 6 6 7 6 6 6 7 7 7 8 8 8 8 11 15 16 17 15 16 8 7 6 7 8 6 7 7 9 11 9 13 14 8 8 8 11 12 13 17 18 19 20 20 20 20 21 22 24 24 25 25 26 28 29 28 24 20 21
4 4 4 4 4 4 4 4 4 4 4 5 5 5 5 5 5 5 5 5 5 5 6 6 7 8 7 7 7 7 6 6 6 7 7 7 6 6 6 8 8 13 13 13 19 16 14 4 5 5 5 6 7 7 8 8 10 11 8 8 8 7 9 13 14 17 18 18 19 21 20 20 20 20 22 23 24 25 27 26 24 23 19 15 20
4 4 4 4 4 5 4 5 4 4 4 4 4 4 5 6 5 5 4 5 5 5 5 6 7 7 7 8 8 8 8 8 8 9 8 8 8 8 9 8 7 11 11 13 18 17 15 12 4 8 6 5 6 6 6 7 9 11 8 8 8 8 12 14 14 18 18 18 18 19 20 20 20 21 20 20 23 26 26 27 27 23 22 15 14
6 5 5 5 6 6 5 5 4 4 4 4 4 4 4 5 5 5 4 4 5 5 5 5 6 6 7 8 8 8 7 8 8 8 8 8 8 8 8 8 9 11 13 13 17 21 14 12 13 3 5 4 4 6 6 6 9 12 10 9 8 11 14 12 14 14 13 15 16 17 18 21 21 21 22 22 24 27 28 27 29 23 18 17 13
5 5 5 5 5 5 5 5 5 5 5 5 5 5 6 5 5 5 6 4 5 5 6 5 5 5 7 8 8 8 7 7 8 8 8 7 8 8 7 7 7 7 8 10 14 20 17 13 13 14 10 13 12 8 9 7 7 10 6 5 6 8 7 7 11 12 11 14 17 18 18 19 20 21 22 24 25 26 25 18 12 15 18 20 28
4 4 5 4 4 4 5 5 5 5 5 5 5 4 4 4 5 4 4 5 5 5 5 6 5 5 6 7 8 8 6 7 7 8 8 8 8 8 8 8 10 10 11 13 16 20 20 16 12 12 11 10 13 8 9 7 5 6 6 6 6 7 7 7 8 10 11 13 15 18 18 19 19 19 20 21 22 21 16 14 14 18 24 27 26
4 4 5 4 5 5 5 5 5 5 5 5 5 4 5 5 6 4 5 5 5 6 5 6 6 5 6 6 8 8 5 7 7 8 7 8 7 8 8 7 10 11 9 11 13 15 20 19 17 10 10 5 15 6 5 9 8 6 9 10 7 8 9 7 6 6 8 11 16 17 17 18 19 19 18 18 15 13 11 14 21 27 29 26 24
5 5 5 5 5 5 5 5 5 5 5 5 5 5 5 5 5 6 5 5 5 6 6 7 7 6 6 7 8 8 6 6 7 7 7 8 8 9 10 8 10 10 9 9 12 14 17 19 18 16 13 10 11 13 9 8 10 9 10 9 9 7 6 7 6 5 8 13 15 16 17 18 18 18 18 18 13 13 18 18 21 26 26 25 23
7 6 5 5 5 5 5 5 5 5 5 5 5 5 5 5 5 6 6 6 6 6 7 7 7 7 7 8 8 7 7 8 8 7 8 8 8 9 10 9 9 11 10 9 10 12 14 17 19 16 12 12 13 12 10 8 10 8 9 9 6 7 6 4 6 7 8 14 16 17 16 17 17 17 18 16 15 20 21 22 22 23 23 22 21
5 4 4 4 4 4 6 5 5 5 5 5 5 6 6 5 5 5 6 6 6 7 7 7 7 7 8 8 9 7 7 9 9 8 8 10 9 9 10 9 10 10 10 9 10 10 13 16 18 16 15 12 13 13 9 10 9 8 6 8 8 7 5 6 6 7 8 13 15 15 15 15 16 17 18 17 21 23 22 23 22 21 22 21 19
4 4 4 4 4 4 4 5 5 5 5 5 5 5 6 5 5 5 5 6 7 7 8 8 8 7 8 9 8 7 7 8 11 10 9 11 10 10 10 10 10 10 11 11 10 11 12 14 15 18 16 16 13 12 10 7 11 11 8 8 5 5 6 8 7 6 5 6 6 7 9 12 15 19 19 20 22 24 23 22 21 20 19 18 18
3 3 4 3 4 4 4 4 5 5 5 5 6 6 6 5 4 5 7 7 7 8 7 8 8 8 9 9 9 8 8 8 10 11 10 11 10 11 11 10 11 10 11 11 10 11 12 14 14 15 16 15 14 15 11 6 8 8 10 9 8 7 6 7 8 5 5 6 6 10 9 9 10 9 14 20 23 21 23 21 20 20 20 21 24
3 4 4 4 4 4 5 5 5 5 5 6 6 5 5 5 5 5 5 7 8 8 8 9 9 9 10 10 9 9 9 9 9 10 9 11 10 12 11 9 10 11 11 10 10 10 11 12 13 15 13 15 14 12 5 2 6 6 6 9 13 11 6 7 8 7 4 5 6 6 9 11 12 16 19 18 20 22 21 19 21 20 21 24 25
4 4 4 4 5 6 5 5 5 5 5 6 5 5 6 7 5 6 7 7 8 9 10 10 9 9 10 9 9 9 10 13 16 15 14 14 11 13 14 10 9 10 11 11 10 11 11 12 14 12 13 14 14 13 12 11 10 12 9 7 10 9 7 5 5 5 5 5 5 5 6 6 7 7 8 8 10 15 13 16 19 25 25 25 24
4 4 4 4 4 5 5 6 5 5 6 5 7 12 10 8 7 6 6 7 7 8 10 11 11 9 9 9 10 14 15 17 17 18 18 18 18 15 14 12 12 11 11 12 12 10 11 12 13 13 14 15 15 12 13 13 10 7 8 6 10 10 4 6 4 4 6 6 6 6 4 3 5 3 5 6 5 8 7 10 10 14 20 24 24
4 4 4 4 4 4 5 5 5 5 6 6 11 13 13 14 9 7 8 9 8 8 9 10 12 13 11 9 9 11 12 13 14 17 18 19 19 20 21 20 17 14 13 14 13 12 12 12 13 14 14 16 16 13 12 12 10 10 10 9 9 7 7 8 10 1 6 8 7 6 4 1 5 7 5 5 6 7 8 10 21 24 24 24 24
4 4 4 4 5 5 5 4 4 6 6 9 13 13 14 14 13 9 8 8 9 9 9 10 11 12 12 12 10 8 8 10 11 11 13 17 18 19 20 19 19 20 20 16 15 13 13 14 14 14 15 15 16 14 12 10 12 10 9 9 9 9 9 9 8 8 4 9 7 6 4 2 2 6 8 6 6 7 9 18 24 24 24 24 24
4 4 4 4 5 5 4 5 5 5 6 9 12 14 14 14 15 13 8 8 9 10 10 11 11 12 11 12 12 11 9 13 12 10 11 12 15 18 18 18 19 21 21 22 21 17 14 15 16 17 15 15 15 15 12 11 9 13 10 8 9 9 9 10 9 5 6 10 7 6 6 3 5 8 9 6 7 7 12 19 23 24 24 24 23
4 4 4 5 5 5 5 6 7 6 6 9 13 14 14 15 16 13 8 9 9 10 11 11 11 12 11 11 12 14 13 10 9 10 11 12 12 12 12 12 12 14 17 19 19 22 21 17 16 17 16 14 16 15 15 13 13 13 12 11 8 9 9 12 11 6 6 11 11 8 4 5 5 8 9 5 5 6 6 14 23 23 24 23 23
4 5 6 6 6 5 6 6 6 7 6 10 13 15 14 15 16 14 8 8 9 10 11 11 11 11 12 12 12 14 15 13 11 10 11 12 12 13 14 14 14 13 12 12 11 11 13 13 14 15 16 16 16 17 15 13 12 12 12 13 12 11 9 1 3 5 8 8 9 10 6 6 5 8 6 6 5 6 6 15 23 23 24 23 22
3 3 4 3 6 7 6 6 8 10 8 9 12 15 16 14 15 10 8 8 10 11 12 12 11 10 10 11 12 13 14 14 15 18 15 13 12 15 17 16 16 14 13 13 16 17 16 14 14 15 14 16 18 17 17 16 13 12 11 11 9 6 5 7 7 6 9 7 10 9 8 7 5 11 7 5 6 7 5 7 19 22 22 22 21
5 6 6 5 5 7 8 7 7 9 11 9 9 14 15 15 10 8 9 9 9 11 12 13 11 10 10 10 11 12 13 14 17 20 21 18 13 15 16 17 17 16 16 13 14 19 22 23 24 25 25 25 25 27 27 28 20 16 11 10 12 7 7 9 7 8 8 8 5 6 12 11 6 9 9 5 5 6 6 6 8 18 21 21 20
7 7 7 7 6 5 7 9 7 8 12 14 13 11 14 16 13 9 9 9 11 12 12 12 11 10 12 18 16 12 13 14 20 23 22 17 13 14 15 16 19 18 18 14 11 11 15 19 20 22 22 23 24 25 27 27 25 18 12 14 11 6 10 10 9 7 6 7 7 10 11 10 10 9 11 5 8 5 4 5 7 12 18 17 19
5 5 6 7 8 7 5 8 11 10 11 14 14 10 14 16 13 8 9 9 11 12 12 13 12 12 12 12 16 15 13 15 23 23 24 18 13 12 13 15 17 19 18 15 15 15 13 13 12 12 13 15 14 13 15 22 21 18 13 13 10 10 11 9 7 6 6 4 6 12 12 8 11 8 13 8 5 2 4 4 7 7 6 6 9
Wind_Direction
159 175 178 218 191 157 130 151 158 185 164 207 148 187 225 232 202 181 198 231 216 206 235 259 230 239 226 252 239 249 263 275 275 283 293 266 176 204 213 218 229 239 246 248 251 255 252 255 259 255 246 252 256 240 227 244 227 233 247 243 247 237 231 234 234 237 237 235 233 230 231 237 226 225 225 231 217 217 217 220 217 215 211 221 220
167 172 170 192 178 153 150 173 163 177 148 205 183 172 204 214 219 209 219 227 230 222 206 224 230 240 242 225 245 234 242 250 263 259 258 260 245 205 211 214 221 227 235 243 245 249 261 260 253 249 250 241 246 251 249 253 236 224 228 244 237 240 241 240 239 242 241 237 236 234 232 230 229 227 232 227 229 224 222 220 218 215 215 218 234
161 176 171 165 168 151 189 208 171 186 159 193 195 185 202 188 192 212 223 229 232 237 202 227 246 231 233 230 239 244 251 253 258 257 249 250 250 226 207 218 221 225 234 240 245 250 257 257 255 252 252 254 252 248 233 247 211 220 221 231 245 245 244 238 234 237 239 245 244 237 234 233 230 228 234 234 231 228 229 229 230 226 216 224 221
262 169 170 160 177 175 189 194 197 193 167 186 188 184 208 216 192 195 251 258 268 262 216 205 245 243 222 223 227 233 247 252 252 253 251 249 247 252 209 216 223 226 230 236 245 251 254 256 252 250 250 253 253 246 239 240 233 232 225 220 229 236 244 245 233 230 231 233 237 240 238 235 232 231 233 235 236 236 235 230 228 232 227 224 231
267 176 138 177 184 187 187 196 200 186 173 183 169 170 225 246 226 171 274 289 292 283 280 236 240 263 259 239 212 223 235 246 250 249 248 243 249 252 255 216 220 228 229 232 238 242 248 252 254 255 255 254 253 250 250 242 236 243 243 233 233 225 237 240 235 235 235 233 234 236 239 239 238 236 235 233 235 237 236 233 233 234 235 225 229
244 224 149 255 269 201 189 209 204 195 170 161 159 174 202 217 225 187 221 231 243 252 260 267 257 257 264 260 225 225 226 232 237 241 242 245 239 241 243 250 227 214 226 233 232 235 239 247 252 254 254 255 253 253 255 255 255 254 249 249 238 230 233 244 245 238 233 235 234 232 234 236 235 234 233 233 232 234 235 235 231 232 234 234 228
218 227 201 187 244 238 204 215 204 190 162 165 169 197 205 218 210 207 218 223 229 237 235 240 242 242 241 240 235 231 228 231 234 239 240 244 243 243 243 240 244 242 219 219 233 233 233 238 245 249 252 253 256 258 256 257 256 257 258 251 243 244 239 233 237 236 237 228 234 233 232 232 233 233 232 230 229 230 232 232 233 234 234 235 234
331 230 207 210 213 233 226 203 205 174 163 170 179 207 215 218 221 199 220 234 222 239 233 242 240 244 243 238 233 223 230 235 238 241 240 236 239 245 245 242 241 238 239 226 223 227 230 232 237 242 246 249 250 255 259 259 260 261 261 250 249 246 242 237 239 240 242 241 234 229 231 232 232 233 233 236 232 227 228 230 232 234 234 234 234
312 322 321 284 260 235 240 213 194 171 169 181 192 216 225 219 227 222 205 226 225 240 245 239 244 242 245 246 238 231 231 231 233 235 243 238 237 239 244 246 242 239 237 240 237 231 227 229 231 236 240 241 245 249 254 260 263 263 259 257 257 259 247 242 241 244 240 228 226 231 228 231 234 234 234 233 233 232 230 230 230 230 233 233 231
208 245 262 255 249 245 243 239 194 171 178 195 211 211 217 212 230 230 218 220 235 243 256 255 248 247 247 250 260 252 248 248 246 247 238 240 237 237 237 238 239 238 236 235 236 236 239 228 231 236 237 238 239 244 248 252 257 262 262 258 254 251 250 246 236 234 233 234 243 234 228 228 230 234 234 232 231 232 230 230 230 229 230 232 231
200 210 216 223 231 247 263 268 228 197 201 212 224 225 226 222 218 233 226 214 217 228 237 247 263 282 281 277 273 262 266 256 249 243 242 243 243 243 241 240 239 236 236 233 231 231 232 235 228 227 237 236 237 240 243 247 251 253 258 260 258 256 247 246 247 240 234 237 246 250 242 231 229 227 226 230 232 229 227 229 232 232 229 230 231
206 212 212 209 206 213 222 229 223 206 213 224 229 225 226 233 238 222 238 250 233 235 242 250 289 300 283 281 264 265 264 257 252 242 243 245 246 244 243 243 238 238 237 235 233 229 229 230 229 230 228 234 234 238 242 245 248 250 252 254 257 257 252 240 243 245 244 246 235 239 243 239 236 231 230 235 235 233 230 231 234 231 228 229 229
207 209 216 214 211 209 210 214 209 216 225 230 229 228 222 217 224 215 227 247 255 233 240 114 330 298 284 267 270 250 249 245 244 244 239 241 242 244 246 249 245 244 243 242 242 237 233 231 231 232 234 233 237 236 238 241 243 247 250 252 253 255 256 252 251 250 252 245 240 238 234 237 238 238 237 235 237 233 229 231 232 232 230 229 229
199 203 214 220 221 219 210 207 206 213 220 226 223 218 217 214 212 242 215 223 245 202 204 108 250 238 288 297 276 261 243 234 235 239 240 242 240 239 242 242 243 241 242 241 241 239 239 235 236 237 238 241 242 241 239 241 244 243 246 249 252 255 256 257 258 257 247 240 247 248 232 234 236 239 237 233 234 232 226 227 231 230 228 228 228
207 211 216 222 222 214 219 225 221 212 220 225 218 223 220 227 230 235 259 241 241 208 189 180 246 198 231 286 289 307 271 251 249 250 241 240 238 238 239 239 242 237 238 240 243 242 239 235 236 238 242 243 245 245 245 243 237 238 241 245 248 251 256 260 262 260 262 257 252 242 238 238 236 237 235 234 236 238 233 229 231 231 230 228 227
206 208 214 222 223 228 233 227 228 205 204 215 219 232 227 234 236 237 229 258 221 249 209 194 208 253 295 211 275 3 305 272 262 256 228 234 228 235 229 238 240 243 242 238 239 238 238 230 234 236 241 243 243 244 245 244 245 240 237 241 246 249 252 256 261 266 265 263 260 249 240 245 242 237 238 238 241 240 235 234 233 233 231 231 227
206 202 201 216 225 231 234 231 221 207 198 220 232 232 230 229 230 234 216 228 253 262 243 199 207 201 234 296 303 272 232 284 339 282 218 236 242 235 233 239 237 236 233 239 240 238 236 235 236 238 240 241 242 242 243 246 246 247 246 243 243 245 249 252 255 261 265 267 266 266 259 241 244 244 241 237 236 236 233 231 230 229 230 230 229
199 197 200 214 225 231 233 234 228 229 222 222 228 229 229 226 216 210 224 219 235 246 260 211 213 208 219 228 228 267 301 301 336 301 337 238 246 218 231 236 235 238 232 237 239 240 230 238 238 243 243 241 240 242 241 242 242 244 243 245 241 240 242 248 252 256 261 265 268 268 268 265 246 246 249 242 236 235 235 235 234 229 229 231 232
239 214 206 202 225 234 232 233 233 233 226 222 223 222 224 223 210 202 213 221 215 248 250 256 247 247 233 236 248 250 251 279 272 307 299 264 212 275 257 250 250 243 241 234 241 240 237 234 241 243 245 243 243 243 245 244 243 243 243 244 245 246 246 248 251 254 256 260 265 268 270 268 267 255 243 244 240 237 238 234 231 229 226 224 226
19 338 331 357 224 248 248 244 245 246 239 230 228 231 238 250 244 238 242 226 223 234 251 242 239 250 204 232 240 248 253 256 254 261 278 297 291 267 254 262 264 249 245 240 242 238 242 236 241 244 245 244 243 246 245 246 245 247 248 246 249 249 249 250 250 251 255 260 262 266 270 273 273 273 261 246 247 245 244 240 232 233 233 228 223
7 7 15 359 328 272 274 291 283 272 247 255 254 258 255 245 241 236 228 229 217 226 232 238 227 245 229 241 239 244 246 245 259 249 259 282 283 286 291 260 239 253 259 243 239 239 236 241 241 244 246 247 244 247 247 247 247 245 245 246 249 251 252 250 250 250 252 254 258 263 267 270 273 276 277 275 260 248 247 243 231 227 227 225 223
324 11 8 354 342 346 344 337 325 309 306 290 297 285 264 255 247 243 243 243 240 240 241 257 256 261 248 252 221 254 262 263 245 242 252 241 266 288 290 295 292 275 234 262 243 246 246 241 245 248 248 250 248 244 243 244 244 243 244 245 249 255 255 255 254 252 252 255 258 259 262 267 272 275 277 276 278 275 266 247 237 232 227 227 222
333 353 21 344 336 340 327 320 324 326 323 328 313 302 293 274 260 261 261 258 257 251 248 245 249 256 255 247 249 242 243 244 246 220 227 251 271 276 284 281 282 293 280 237 255 247 236 239 240 246 244 250 246 243 242 241 240 242 244 245 248 254 257 257 257 259 258 258 258 261 260 261 265 271 275 278 278 276 276 274 264 245 231 226 222
245 302 292 256 249 257 256 263 273 302 316 320 320 317 315 311 291 262 258 254 258 255 252 257 250 251 252 254 258 257 259 262 274 259 249 257 256 271 281 294 292 275 280 280 247 248 245 236 238 241 241 244 246 241 245 244 241 241 245 248 250 255 259 259 258 255 257 258 261 262 265 265 268 270 271 275 278 278 276 275 273 267 252 238 227
351 6 344 12 12 4 355 347 323 298 289 308 315 330 333 331 329 330 326 308 279 265 263 257 258 255 259 250 248 250 249 246 251 253 254 264 268 281 279 279 279 293 293 289 287 269 229 251 239 238 241 241 241 239 240 239 243 240 239 252 249 254 259 262 263 266 266 264 261 260 261 262 264 266 269 272 274 274 274 274 276 277 272 256 239
3 4 17 19 12 1 358 353 349 344 338 321 318 313 311 308 310 309 307 305 307 293 279 277 271 266 267 270 260 258 264 267 266 266 266 265 261 262 283 285 274 278 289 293 284 294 276 216 246 242 232 239 237 240 237 239 241 244 241 245 253 252 257 260 263 264 261 261 261 261 262 262 262 264 267 270 271 273 273 272 273 274 275 275 261
20 13 21 16 5 1 353 351 347 344 339 337 328 317 310 307 309 308 313 314 308 302 302 301 291 288 287 281 285 273 272 274 270 270 268 260 263 266 269 282 291 286 282 288 291 271 276 283 227 254 238 228 239 232 236 237 240 240 245 245 253 254 256 261 261 261 262 261 261 261 261 261 263 266 268 268 269 269 269 269 269 270 273 275 278
20 25 7 13 359 356 356 344 341 338 337 338 339 342 338 333 319 316 305 305 305 313 313 318 312 312 308 301 295 287 281 275 273 276 275 276 276 277 276 279 290 299 301 296 288 281 271 263 275 224 243 234 234 233 234 238 239 242 242 242 245 251 250 254 257 262 263 263 262 263 263 263 263 267 268 268 267 267 269 269 269 270 274 282 286
11 21 12 4 5 4 355 346 344 342 345 343 344 343 341 337 329 328 327 330 331 320 321 315 310 310 308 308 305 306 306 309 303 294 290 288 289 293 287 284 285 283 289 297 294 294 302 152 258 280 197 242 235 226 232 230 235 236 240 233 234 237 238 243 249 256 258 261 264 265 263 263 264 263 265 266 265 265 267 266 264 262 263 269 277
30 17 15 9 4 4 1 351 345 348 342 338 341 340 342 338 331 329 325 337 330 326 323 323 318 322 315 312 310 302 304 306 301 298 299 296 291 283 275 267 273 280 286 290 288 288 293 295 230 280 279 236 243 249 232 239 237 236 240 237 234 231 233 237 243 256 258 257 260 263 264 265 265 265 262 261 264 266 266 265 263 259 258 251 199
26 18 13 15 10 4 4 350 345 341 343 342 342 343 344 335 329 326 325 341 334 320 318 322 313 317 312 308 306 297 302 300 295 292 289 288 285 289 287 281 261 246 253 259 273 275 278 283 293 219 259 277 229 252 247 235 237 232 234 232 232 236 238 247 255 259 261 265 268 267 266 266 265 265 263 263 265 266 263 259 259 251 233 217 155
22 20 21 16 7 2 353 352 347 349 349 344 348 346 347 337 330 333 324 345 333 316 308 306 305 305 303 299 296 295 302 303 298 295 294 290 288 286 284 291 297 302 306 297 283 285 289 289 294 296 292 293 283 259 261 253 246 246 252 252 249 262 267 249 253 248 253 263 266 265 264 263 264 265 266 267 268 265 258 245 194 203 205 165 142
19 20 22 7 4 359 354 353 352 345 347 340 342 345 342 329 324 321 319 322 313 301 301 300 298 293 289 287 289 289 294 291 291 290 288 288 288 282 280 274 268 262 258 260 268 275 283 283 280 284 294 292 284 280 269 271 271 273 266 256 253 247 246 247 245 245 244 249 256 261 260 263 264 267 267 270 271 253 231 225 201 156 136 140 138
29 23 15 6 5 359 356 348 346 341 335 334 328 338 332 326 318 315 312 309 304 295 298 296 296 290 287 287 288 290 287 281 285 285 284 289 287 285 278 276 276 277 278 288 288 294 292 298 292 290 292 317 293 282 243 266 262 247 254 250 244 239 239 247 250 254 247 247 256 260 259 262 263 263 265 269 252 216 187 157 141 133 139 140 143
15 20 6 8 358 354 349 341 341 339 337 332 332 339 330 323 315 313 308 306 300 297 298 289 290 291 291 285 286 292 296 292 287 285 290 288 287 281 278 274 272 271 263 249 258 264 272 279 285 291 285 278 266 282 269 254 261 261 264 256 244 245 243 237 246 245 238 248 252 254 255 255 257 259 258 260 214 170 152 145 140 140 144 147 146
15 360 5 359 1 350 347 339 338 337 336 332 329 330 319 317 315 309 309 306 298 292 287 289 289 290 285 291 286 289 295 294 290 291 287 283 282 280 278 272 270 270 265 258 249 263 273 281 284 285 285 290 282 274 274 265 264 256 244 258 258 249 253 246 241 249 246 249 254 254 254 254 254 256 258 246 187 162 156 152 150 147 147 146 145
355 3 348 355 357 352 342 332 326 329 322 322 325 321 315 308 303 302 305 305 301 296 290 287 288 286 287 279 284 289 292 291 290 286 287 285 281 279 277 279 274 272 272 263 261 257 266 271 280 282 285 278 278 281 275 276 268 253 256 247 245 245 248 243 239 243 250 249 254 255 255 257 253 253 258 219 165 165 159 158 156 150 148 148 148
340 344 343 334 339 328 325 315 314 310 313 315 313 308 306 308 312 316 314 308 301 295 292 287 283 280 278 280 278 279 282 281 285 286 284 282 282 278 276 276 275 274 274 271 264 263 261 266 272 283 283 285 283 274 272 233 268 271 261 250 254 247 237 250 238 239 238 242 245 256 255 255 251 246 256 192 168 167 160 161 159 153 150 147 149
331 330 321 327 314 322 310 314 312 309 311 312 311 308 304 304 316 319 311 302 295 294 287 285 282 279 274 273 275 268 268 268 273 278 282 282 280 277 276 277 278 280 277 276 273 267 265 270 271 269 279 278 277 284 278 236 240 251 263 275 265 227 225 237 252 235 220 239 243 239 237 236 242 238 242 185 171 162 165 166 161 154 147 145 144
338 334 330 328 318 326 314 313 307 311 309 307 304 299 296 298 308 302 297 297 296 291 288 283 281 278 274 271 267 265 259 261 262 268 269 276 281 283 276 275 278 282 280 279 279 275 274 271 270 279 274 280 282 272 285 310 266 265 233 240 261 267 228 226 226 233 219 203 236 245 239 241 239 234 223 183 171 170 169 164 156 142 142 144 144
338 333 328 329 327 323 316 311 308 307 306 299 297 300 301 300 293 292 291 287 286 290 289 285 278 275 275 269 265 260 259 256 256 258 261 263 274 282 282 279 275 276 281 281 279 278 274 275 278 273 278 278 276 283 280 267 255 261 259 211 249 256 253 242 237 207 197 205 225 218 230 216 212 197 175 169 170 167 159 152 142 140 144 144 142
331 325 326 321 317 305 310 311 311 307 299 291 288 288 290 291 294 287 287 285 286 289 293 294 291 279 271 273 271 264 262 264 262 262 263 264 261 257 269 280 280 279 275 280 279 277 279 278 275 280 280 277 279 276 276 272 277 267 260 235 246 252 229 246 251 208 187 190 197 212 213 237 158 113 113 131 148 142 135 132 136 141 145 144 142
322 316 319 317 310 304 301 298 298 293 289 290 292 296 298 300 300 297 295 294 289 286 286 289 292 294 289 277 271 270 269 265 262 260 262 262 262 263 263 262 262 267 279 276 275 279 279 273 276 278 276 279 279 279 276 281 275 267 257 249 246 244 225 228 250 221 197 174 195 184 177 225 143 140 119 114 127 129 138 137 143 146 146 143 142
317 321 320 300 297 296 290 285 286 288 288 286 293 298 301 302 303 298 294 292 293 290 288 286 287 290 291 292 285 274 264 262 266 265 264 265 265 265 267 268 267 262 256 259 271 277 274 278 276 272 279 277 283 285 282 283 283 275 255 245 238 232 233 232 234 230 198 170 177 172 146 65 77 116 97 115 123 131 141 146 146 145 145 145 145
310 318 300 300 294 292 293 298 296 291 289 290 294 297 299 300 301 299 289 285 288 289 288 285 285 286 289 291 294 286 275 266 267 269 271 273 272 270 269 268 266 264 263 260 257 259 270 269 271 274 272 280 281 280 281 279 280 280 273 253 241 237 233 235 235 213 163 171 154 152 141 105 123 132 122 127 132 139 147 148 147 148 147 146 143
301 295 292 293 298 306 306 303 298 295 289 291 295 300 303 303 302 301 287 288 286 285 285 285 284 286 287 289 292 292 291 283 269 268 273 275 280 282 279 274 271 265 262 259 256 255 253 257 262 268 272 273 277 279 281 281 279 275 277 269 250 242 234 233 232 206 161 166 168 143 118 124 120 124 120 120 133 130 132 152 151 148 144 142 140
306 312 320 326 320 314 309 304 300 296 288 290 300 302 303 301 299 304 292 288 287 287 285 283 282 282 286 285 283 284 288 287 282 274 275 279 283 283 282 280 276 274 269 265 256 254 253 250 255 259 266 269 272 275 278 277 270 266 264 266 263 249 242 354 53 143 161 177 155 145 135 132 135 114 99 115 114 119 136 156 148 144 141 138 135
289 304 308 305 308 310 303 305 308 303 298 295 300 303 304 300 301 302 297 291 289 289 289 287 283 280 279 279 282 283 284 286 286 286 282 283 283 284 285 284 284 280 272 260 254 251 252 252 250 253 256 262 266 270 271 272 273 270 265 264 261 238 183 197 191 165 168 178 172 150 125 125 143 120 109 105 111 112 120 129 144 138 135 132 131
340 337 326 313 305 307 308 307 303 299 301 293 291 299 301 303 305 300 298 296 290 290 289 291 291 288 284 281 280 282 287 289 292 295 296 293 286 284 284 285 286 287 284 280 265 260 257 254 256 258 261 264 266 269 272 273 275 275 276 265 242 219 192 202 200 180 182 153 163 141 131 123 143 124 108 80 79 95 103 121 128 132 129 129 130
335 327 315 314 309 302 302 301 297 298 299 301 301 297 306 308 310 304 298 297 294 293 294 292 293 290 285 284 281 282 286 289 296 298 296 293 286 283 284 287 289 290 288 290 289 273 262 261 262 264 265 265 265 268 272 275 275 274 270 261 258 192 218 207 199 185 161 164 156 142 119 136 136 128 111 95 70 26 51 95 113 124 125 127 130
308 305 312 313 310 305 288 289 298 298 296 299 302 302 310 312 313 305 301 296 296 296 298 297 296 294 290 285 285 286 288 288 294 298 301 301 294 291 291 290 289 288 289 297 294 292 291 287 274 269 264 259 261 261 261 263 266 266 259 257 252 215 220 211 170 153 148 166 153 148 121 149 134 147 130 117 62 345 9 52 80 78 86 99 120